Weather History for Barnwell, SC

Change the Weather History Date:

Saturday, February 16, 2013

  Actual Average (KOGB) Record (KOGB)
Temperature  
Mean Temperature 42 °F 50 °F  
Max Temperature 48 °F 61 °F 85 °F (1989)
Min Temperature 33 °F 38 °F 16 °F (1991)
Degree Days  
Heating Degree Days 24 15  
Month to date heating degree days 267  
Since 1 July heating degree days 1764  
Cooling Degree Days 0 0  
Month to date cooling degree days 0  
Year to date cooling degree days 1  
Moisture  
Dew Point 31 °F    
Average Humidity 70    
Maximum Humidity 100    
Minimum Humidity 34    
Precipitation  
Precipitation 0.00 in 0.15 in 1.57 in (1969)
Month to date precipitation 1.79  
Year to date precipitation 5.77  
Sea Level Pressure  
Sea Level Pressure 29.95 in    
Wind  
Wind Speed 2 mph (WNW)    
Max Wind Speed 14 mph    
Max Gust Speed 24 mph    
Visibility 10 miles    
Events Rain    
T = Trace of Precipitation, MM = Missing Value Source: NWS Daily Summary

Daily Weather History Graph

Daily Weather History Graph

Search for Another Location

Airport:

Trip Planner

Search our weather history database for the weather conditions in past years. The results will help you decide how hot, cold, wet, or windy it might be!

Date:

Astronomy

Feb. 16, 2013 Rise Set
Actual Time 7:08 AM EST 6:11 PM EST
Civil Twilight 6:42 AM EST 6:36 PM EST
Nautical Twilight 6:13 AM EST 7:05 PM EST
Astronomical Twilight 5:44 AM EST 7:34 PM EST
Moon 10:42 AM EST No Moon Set
Length of Visible Light 11h 54m
Length of Day
11h 03m
Waxing Crescent, 39% of the Moon is Illuminated
Feb 16
Waxing Crescent
Feb 17
First Quarter
Feb 25
Full
Mar 4
Last Quarter
Mar 11
New

Hourly Weather History & Observations

Time (EST) Temp. Windchill Dew Point Humidity Pressure Visibility Wind Dir Wind Speed Gust Speed Precip Events Conditions
12:15 AM 39.2 °F - 37.4 °F 93% 29.97 in 10.0 mi Calm Calm - N/A   Clear
12:35 AM 39.2 °F - 37.4 °F 93% 29.97 in 10.0 mi Calm Calm - N/A   Clear
12:55 AM 41.0 °F - 37.4 °F 87% 29.97 in 10.0 mi Calm Calm - N/A   Clear
1:15 AM 42.8 °F - 39.2 °F 87% 29.97 in 8.0 mi Calm Calm - N/A   Mostly Cloudy
1:35 AM 44.6 °F - 39.2 °F 81% 29.97 in 10.0 mi Calm Calm - N/A   Overcast
1:55 AM 42.8 °F - 39.2 °F 87% 29.96 in 10.0 mi Calm Calm - N/A   Mostly Cloudy
2:15 AM 42.8 °F - 37.4 °F 81% 29.96 in 10.0 mi Calm Calm - N/A   Partly Cloudy
2:35 AM 41.0 °F - 37.4 °F 87% 29.95 in 10.0 mi Calm Calm - N/A   Clear
2:55 AM 39.2 °F - 37.4 °F 93% 29.94 in 10.0 mi Calm Calm - N/A   Clear
3:15 AM 39.2 °F - 37.4 °F 93% 29.94 in 10.0 mi Calm Calm - N/A   Clear
3:35 AM 39.2 °F - 37.4 °F 93% 29.93 in 10.0 mi Calm Calm - N/A   Clear
3:55 AM 39.2 °F - 37.4 °F 93% 29.93 in 10.0 mi Calm Calm - N/A   Clear
4:15 AM 37.4 °F - 37.4 °F 100% 29.92 in 10.0 mi Calm Calm - N/A   Clear
4:35 AM 37.4 °F - 37.4 °F 100% 29.92 in 10.0 mi Calm Calm - N/A   Clear
4:55 AM 39.2 °F - 37.4 °F 93% 29.92 in 10.0 mi Calm Calm - N/A   Clear
5:15 AM 39.2 °F - 37.4 °F 93% 29.91 in 10.0 mi Calm Calm - N/A   Scattered Clouds
5:35 AM 41.0 °F - 37.4 °F 87% 29.92 in 10.0 mi Calm Calm - N/A   Mostly Cloudy
5:55 AM 39.2 °F - 37.4 °F 93% 29.92 in 10.0 mi Calm Calm - N/A   Mostly Cloudy
6:15 AM 41.0 °F - 37.4 °F 87% 29.93 in 10.0 mi Calm Calm - N/A   Mostly Cloudy
6:35 AM 42.8 °F - 37.4 °F 81% 29.93 in 10.0 mi Calm Calm - N/A   Partly Cloudy
6:55 AM 42.8 °F - 37.4 °F 81% 29.93 in 10.0 mi Calm Calm - N/A   Partly Cloudy
7:15 AM 42.8 °F 38.6 °F 37.4 °F 81% 29.93 in 10.0 mi North 6.9 mph - N/A   Mostly Cloudy
7:55 AM 42.8 °F - 37.4 °F 81% 29.93 in 10.0 mi Calm Calm - N/A   Scattered Clouds
8:15 AM 44.6 °F - 37.4 °F 76% 29.93 in 10.0 mi Calm Calm - N/A   Scattered Clouds
8:35 AM 44.6 °F 40.7 °F 37.4 °F 76% 29.93 in 10.0 mi North 6.9 mph - N/A   Scattered Clouds
8:55 AM 44.6 °F 40.7 °F 37.4 °F 76% 29.93 in 10.0 mi NNW 6.9 mph - N/A   Mostly Cloudy
9:15 AM 44.6 °F 40.2 °F 37.4 °F 76% 29.95 in 10.0 mi NNW 8.1 mph - N/A   Mostly Cloudy
9:35 AM 44.6 °F 41.4 °F 37.4 °F 76% 29.96 in 10.0 mi NW 5.8 mph - N/A   Light Drizzle
9:55 AM 44.6 °F 40.7 °F 37.4 °F 76% 29.96 in 10.0 mi NW 6.9 mph - N/A Rain Light Rain
10:15 AM 42.8 °F 37.5 °F 39.2 °F 87% 29.97 in 10.0 mi NW 9.2 mph - N/A   Mostly Cloudy
10:35 AM 42.8 °F 38.0 °F 39.2 °F 87% 29.98 in 7.0 mi NW 8.1 mph 16.1 mph N/A   Light Drizzle
1:15 PM 39.2 °F - 37.4 °F 93% 29.92 in 10.0 mi Calm Calm - N/A   Mostly Cloudy
1:35 PM 39.2 °F - 37.4 °F 93% 29.92 in 10.0 mi Calm Calm - N/A   Mostly Cloudy
1:55 PM 39.2 °F - 35.6 °F 87% 29.91 in 10.0 mi Calm Calm - N/A   Overcast
2:15 PM 39.2 °F - 37.4 °F 93% 29.91 in 10.0 mi Calm Calm - N/A   Mostly Cloudy
2:35 PM 42.8 °F - 37.4 °F 81% 29.90 in 10.0 mi Calm Calm - N/A   Mostly Cloudy
2:55 PM 44.6 °F - 37.4 °F 76% 29.89 in 10.0 mi Calm Calm - N/A   Mostly Cloudy
3:15 PM 44.6 °F 43.1 °F 37.4 °F 76% 29.88 in 10.0 mi South 3.5 mph - N/A   Mostly Cloudy
3:35 PM 44.6 °F - 37.4 °F 76% 29.87 in 10.0 mi Calm Calm - N/A   Scattered Clouds
3:55 PM 46.4 °F - 37.4 °F 71% 29.87 in 10.0 mi Calm Calm - N/A   Scattered Clouds
4:15 PM 46.4 °F - 37.4 °F 71% 29.86 in 10.0 mi Calm Calm - N/A   Scattered Clouds
4:35 PM 46.4 °F - 37.4 °F 71% 29.86 in 10.0 mi Calm Calm - N/A   Mostly Cloudy
4:55 PM 48.2 °F - 33.8 °F 58% 29.86 in 10.0 mi West 12.7 mph 18.4 mph N/A   Scattered Clouds
5:15 PM 48.2 °F - 24.8 °F 40% 29.87 in 10.0 mi West 11.5 mph - N/A   Mostly Cloudy
5:35 PM 46.4 °F 40.7 °F 19.4 °F 34% 29.88 in 10.0 mi West 12.7 mph 20.7 mph N/A   Partly Cloudy
5:55 PM 46.4 °F 40.7 °F 19.4 °F 34% 29.89 in 10.0 mi West 12.7 mph 21.9 mph N/A   Clear
6:15 PM 44.6 °F 39.7 °F 17.6 °F 34% 29.91 in 10.0 mi West 9.2 mph 24.2 mph N/A   Clear
6:35 PM 42.8 °F 35.8 °F 17.6 °F 36% 29.92 in 10.0 mi West 13.8 mph 20.7 mph N/A   Partly Cloudy
6:55 PM 42.8 °F 36.2 °F 17.6 °F 36% 29.94 in 10.0 mi West 12.7 mph 19.6 mph N/A   Scattered Clouds
7:15 PM 42.8 °F 37.0 °F 17.6 °F 36% 29.95 in 10.0 mi West 10.4 mph 18.4 mph N/A   Scattered Clouds
7:35 PM 42.8 °F 37.5 °F 17.6 °F 36% 29.96 in 10.0 mi West 9.2 mph 17.3 mph N/A   Mostly Cloudy
7:55 PM 41.0 °F 34.7 °F 17.6 °F 39% 29.98 in 10.0 mi West 10.4 mph 17.3 mph N/A   Mostly Cloudy
8:15 PM 39.2 °F 35.0 °F 23.0 °F 52% 29.99 in 10.0 mi NNW 5.8 mph - N/A   Partly Cloudy
8:35 PM 37.4 °F - 28.4 °F 70% 30.01 in 10.0 mi Calm Calm - N/A   Scattered Clouds
8:55 PM 37.4 °F 32.8 °F 23.0 °F 56% 30.01 in 10.0 mi WNW 5.8 mph - N/A   Scattered Clouds
9:15 PM 37.4 °F 30.3 °F 17.6 °F 45% 30.03 in 10.0 mi WNW 10.4 mph 16.1 mph N/A   Clear
9:35 PM 37.4 °F 31.4 °F 14.0 °F 38% 30.04 in 10.0 mi WNW 8.1 mph 20.7 mph N/A   Clear
9:55 PM 37.4 °F 30.8 °F 15.8 °F 41% 30.05 in 10.0 mi West 9.2 mph 16.1 mph N/A   Clear
10:15 PM 37.4 °F 30.3 °F 14.0 °F 38% 30.06 in 10.0 mi WNW 10.4 mph - N/A   Clear
10:35 PM 37.4 °F 32.8 °F 15.8 °F 41% 30.07 in 10.0 mi WNW 5.8 mph - N/A   Clear
10:55 PM 35.6 °F - 15.8 °F 44% 30.08 in 10.0 mi Calm Calm - N/A   Clear
11:15 PM 35.6 °F 29.9 °F 15.8 °F 44% 30.08 in 10.0 mi WNW 6.9 mph - N/A   Clear
11:35 PM 35.6 °F - 15.8 °F 44% 30.08 in 10.0 mi Calm Calm - N/A   Clear
11:55 PM 33.8 °F 29.6 °F 17.6 °F 52% 30.08 in 10.0 mi WNW 4.6 mph - N/A   Clear